Whiting Fld NAS, FL

5:29 AM CST on November 21, 2019 (GMT -0600)
Whiting Field Naval Air Station (North)

Weather History for KNSE - September, 2019

Change the Weather History Date:

Tuesday, September 3, 2019

  Actual Average Record
Temperature  
Mean Temperature 82 °F -  
Max Temperature 93 °F 86 °F 95 °F (1997)
Min Temperature 72 °F 69 °F 69 °F (1998)
Cooling Degree Days 18    
Growing Degree Days 32 (Base 50)    
Moisture  
Dew Point 71 °F    
Average Humidity 73    
Maximum Humidity 93    
Minimum Humidity 47    
Precipitation  
Precipitation 0.00 in - - ()
Sea Level Pressure  
Sea Level Pressure 29.88 in    
Wind  
Wind Speed 5 mph (NNE)    
Max Wind Speed 9 mph    
Max Gust Speed 21 mph    
Visibility 10 miles    
Events      
Averages and records for this station are not official NWS values.
T = Trace of Precipitation, MM = Missing Value Source: NWS Daily Summary

Daily Weather History Graph

Daily Weather History Graph

Search for Another Location

Airport or City:

Astronomy

Sep. 03, 2019 Rise Set
Actual Time 6:25 AM CDT 7:08 PM CDT
Civil Twilight 6:01 AM CDT 7:33 PM CDT
Nautical Twilight 5:32 AM CDT 8:02 PM CDT
Astronomical Twilight 5:02 AM CDT 8:31 PM CDT
Moon 10:59 AM CDT (9/3) 10:26 PM CDT (9/3)
Length of Visible Light 13h 32m
Length of Day
12h 43m
Waxing Crescent, 25% of the Moon is Illuminated
Sep 3
Waxing Crescent
Sep 5
First Quarter
Sep 13
Full
Sep 21
Last Quarter
Sep 28
New

Hourly Weather History & Observations

Time (CDT) Temp. Heat Index Dew Point Humidity Pressure Visibility Wind Dir Wind Speed Gust Speed Precip Events Conditions
12:56 AM 75.0 °F - 72.0 °F 90% 29.88 in 10.0 mi NNE 4.6 mph - N/A   Clear
1:56 AM 75.0 °F - 71.1 °F 87% 29.86 in 10.0 mi North 4.6 mph - N/A   Clear
2:56 AM 73.9 °F - 71.1 °F 91% 29.85 in 10.0 mi NNE 4.6 mph - N/A   Clear
3:56 AM 73.0 °F - 70.0 °F 90% 29.86 in 10.0 mi NNE 4.6 mph - N/A   Clear
4:56 AM 73.0 °F - 70.0 °F 90% 29.87 in 10.0 mi NNE 3.5 mph - N/A   Clear
5:56 AM 72.0 °F - 70.0 °F 93% 29.89 in 10.0 mi North 4.6 mph - N/A   Clear
6:56 AM 72.0 °F - 70.0 °F 93% 29.91 in 10.0 mi NNE 3.5 mph - N/A   Clear
7:56 AM 75.9 °F - 71.1 °F 85% 29.92 in 10.0 mi NE 3.5 mph - N/A   Clear
8:56 AM 82.0 °F 86.7 °F 72.0 °F 71% 29.93 in 10.0 mi NNE 4.6 mph - N/A   Clear
9:56 AM 86.0 °F 93.0 °F 73.0 °F 65% 29.93 in 10.0 mi East 9.2 mph - N/A   Clear
10:56 AM 89.1 °F 97.0 °F 73.0 °F 59% 29.92 in 10.0 mi ENE 9.2 mph - N/A   Partly Cloudy
11:56 AM 89.1 °F 96.0 °F 72.0 °F 57% 29.91 in 10.0 mi Variable 6.9 mph - N/A   Partly Cloudy
12:56 PM 91.0 °F 98.2 °F 72.0 °F 53% 29.89 in 10.0 mi East 8.1 mph 20.7 mph N/A   Partly Cloudy
1:56 PM 93.0 °F 101.9 °F 73.0 °F 52% 29.87 in 10.0 mi ENE 9.2 mph - N/A   Scattered Clouds
2:56 PM 91.9 °F 99.5 °F 72.0 °F 52% 29.85 in 10.0 mi Variable 4.6 mph - N/A   Scattered Clouds
3:56 PM 91.9 °F 97.4 °F 70.0 °F 48% 29.84 in 10.0 mi East 9.2 mph - N/A   Scattered Clouds
4:56 PM 93.0 °F 99.0 °F 70.0 °F 47% 29.84 in 10.0 mi NNE 9.2 mph - N/A   Scattered Clouds
5:56 PM 91.0 °F 97.6 °F 71.1 °F 52% 29.85 in 10.0 mi Calm Calm - N/A   Scattered Clouds
6:56 PM 86.0 °F 91.5 °F 71.1 °F 61% 29.86 in 10.0 mi North 3.5 mph - N/A   Partly Cloudy
7:56 PM 80.1 °F 83.6 °F 71.1 °F 74% 29.87 in 10.0 mi North 3.5 mph - N/A   Partly Cloudy
8:56 PM 75.9 °F - 71.1 °F 85% 29.89 in 10.0 mi North 3.5 mph - N/A   Clear
9:56 PM 77.0 °F - 70.0 °F 79% 29.89 in 10.0 mi North 3.5 mph - N/A   Clear
10:45 PM 75.9 °F - 70.0 °F 82% 29.94 in 10.0 mi North 4.6 mph - N/A   Clear
10:56 PM 75.9 °F - 70.0 °F 82% 29.90 in 10.0 mi North 4.6 mph - N/A   Clear
11:56 PM 75.9 °F - 69.1 °F 79% 29.89 in 10.0 mi North 4.6 mph - N/A   Clear